Location: Pasadena-CA
(34.1440°N, 118.1100°W)
Time: 21:46:18
(UTC-07:00)

FALCONSAT 3 - Pass Details

Date: 02 July 2022
Orbit: 392 x 398 km, 35.4° (Epoch: 17 August)

Event Time Altitude Azimuth Distance (km) Brightness Sun altitude
Rises 21:45:23 0° 265° (W) 2,331 ? -17.0°
Reaches altitude 10° 21:47:30 10° 267° (W) 1,467 ? -17.3°
Maximum altitude 21:50:50 75° 353° (N) 422 ? -17.8°
Enters shadow 21:51:56 39° 71° (ENE) 627 ? -18.0°
